Weather in Drokino

Russia / Krasnoyarsk Krai     56°05′55″N   92°45′00″E
temp.,
°C
wind,
m/s
gust,
m/s
humid.,
%
clouds,
%
prec.,
mm/h
press.,
hPa
HPBL,
m
24 april, sat
sat2401:00−1nne2582100 0.0 1038139
04:00−2nne2483100 0.0 1036116
07:00+1ne31070100 0.0 1034722
10:00+4ene585213 0.0 10311174
13:00+6e5650100 0.0 10291759
16:00+3ene5676100 0.3 1029927
19:00+1ne3597100 0.8 1029384
22:00+1nne1299100 0.9 1029287
25 april, sun
sun2501:000nw1299100 1.8 1028266
04:000wnw1299100 1.6 1028211
07:000wnw1298100 2.1 1030157
10:00+2w3589100 0.6 1030613
13:00+4wnw5774100 0.9 10291123
16:00+4wnw5773100 0.3 10281180
19:00+2wnw4892100 0.6 1030712
22:00+1sw2396100 0.1 1030100
26 april, mon
mon2601:000sw2396100 0.1 103089
04:00−1sw2295100 0.0 103043
07:00+1wsw2590100 0.0 1031200
10:00+5w4671100 0.1 10301105
13:00+6wnw4665100 0.3 10301307
16:00+7w356496 0.3 10291216
19:00+6w137446 0.4 1029214
22:00+1ssw218641 0.0 103013
27 april, tue
tue2701:000s2188100 0.0 102816
04:000s2287100 0.0 102721
07:00+2s248099 0.0 1025101
10:00+8s4954100 0.0 1021851
13:00+9sw6958100 0.0 10191206
16:00+7sw6117895 0.1 10191036
19:00+6w51073100 1.3 1019938
22:00+2sw229182 0.1 102225
28 april, wed
wed2801:00+1sw229199 0.1 102333
04:00+1ssw2290100 0.0 102331
07:00+3ssw2485100 0.0 1023125
10:00+8ssw4961100 0.0 1020689
13:00+10ssw61058100 0.0 10171386
16:00+7ssw51384100 0.6 1014589
19:00+8ssw61681100 2.7 1010815
22:00+9sw71979100 0.1 1008667